دليل دواء مصر
دليل دواء مصر

دليل الأدوية
129
زيادات اسعار الادوية

صيدليات لطلب الادوية

تسجيل الدخول

Alphabetical Order 00
Popularity Order
X

صيدلية د اسماء التجمع شراء الادوية اونلاين
صيدلية د اسماء التجمع
تاريخ انتهاء الاشتراك: 2024-08-01

صيدلية د اسماء التجمع


لطلبات الادوية من الصيدلية يمكنكم استخدام هذه الوسائل للاتصال
👇 👇 👇


آخر اوردرات تم طلبها من الصيدلية
👇 👇 👇

ItemPriceTimeC.Phone
questran 4gm 50 sachets (illegal import)0 L.E.2024/07/23 09:16:49 am..
furfact 320 mg 7 f.c. tab.80 L.E.2024/07/23 07:38:52 am010060556..
veroxeserin 100 mg 10 f.c. tabs200 L.E.2024/07/23 05:23:07 am010968139..
veroxeserin 100 mg 10 f.c. tabs200 L.E.2024/07/23 05:21:37 am010968139..
haloperidol retard 100mg/ml i.m. amp.19.2 L.E.2024/07/23 05:12:57 am012055667..
topamax 25mg 60 f.c. tabs.186 L.E.2024/07/23 05:10:19 am010015568..
acniact topical gel 15 gm25 L.E.2024/07/23 04:22:58 am..
haloperidol retard 50mg/ml i.m.amp.19.2 L.E.2024/07/23 04:10:04 am011404666..
fostimon 150 i.u. i.m./s.c. vial390 L.E.2024/07/23 03:56:22 am010033402..
mentoprofen gel 20 gm4.75 L.E.2024/07/23 03:31:42 am011483345..
unitrexate 50 mg 5 i.m. i.v. vials220 L.E.2024/07/23 02:22:09 am012244734..
unitrexate 50 mg 5 i.m. i.v. vials220 L.E.2024/07/23 02:18:38 am012244734..
betacor 80mg 30 tab.57 L.E.2024/07/23 02:18:07 am010956837..
unitrexate 50 mg 5 i.m. i.v. vials220 L.E.2024/07/23 02:14:48 am012244734..
glybofen 5/1000mg 30 f.c.tabs.31.5 L.E.2024/07/23 02:14:17 am010945943..
hydroxyurea-medac 500mg 100caps. ss1200 L.E.2024/07/23 02:07:30 am012803126..
betadine dry powder spray 2.5% 55 gm220 L.E.2024/07/23 02:06:02 am010061553..
mounjaro injection 5mg/0.5ml 4 single dose prefilled pens20000 L.E.2024/07/23 02:00:31 am010703137..
mounjaro injection 5mg/0.5ml 4 single dose prefilled pens20000 L.E.2024/07/23 01:59:53 am010703137..
gonapure 75 i.u./ml i.m./s.c. amp.247 L.E.2024/07/23 01:17:14 am011015002..
humalog 100i.u./ml (5 cartridges)529 L.E.2024/07/23 12:42:49 am015072345..
pentasa 500mg 100 slow release tab575 L.E.2024/07/23 12:30:02 am..
ketosteril 100 f.c. tabs.675 L.E.2024/07/23 12:14:03 am010031301..
amosar 50mg 30 f.c. tabs.51 L.E.2024/07/23 12:03:01 am010178608..
xeloda 500 mg 120 tab6650 L.E.2024/07/22 11:54:11 pm010038320..
limitless turmeric 500 mg 60 caps.385 L.E.2024/07/22 11:46:09 pm010071659..
stugeron 25mg 30 tab34.5 L.E.2024/07/22 11:23:49 pm..
demafight 5 mg 30 scored tabs55.5 L.E.2024/07/22 10:54:25 pm..
wellbutrin 150mg 30 s.r. tab.70 L.E.2024/07/22 10:54:11 pm010999012..
wellbutrin 150mg 30 s.r. tab.70 L.E.2024/07/22 10:52:45 pm010999012..
keppra 100mg/ml oral solution 300 ml805 L.E.2024/07/22 10:45:37 pm..
menogon 75 i.u. 10 amp.924 L.E.2024/07/22 10:30:49 pm012831444..
flagentyl 500mg 4 f.c. tabs.21.6 L.E.2024/07/22 10:25:59 pm010090126..
saline sodium chloride 2.7% 500 ml p.infusion13 L.E.2024/07/22 10:07:00 pm..
gonapure 150 i.u./ml i.m./s.c. vial395 L.E.2024/07/22 09:59:21 pm..
spiriva respimat 2.5mcg 60 puffs inhaler416 L.E.2024/07/22 09:38:01 pm010251326..
blemil plus 3 milk 400 gm260 L.E.2024/07/22 09:25:45 pm..
gast-reg 24mg/5ml 125ml susp17.5 L.E.2024/07/22 09:20:13 pm012888854..
tenedone 100/25mg 30 f.c. tab.31.5 L.E.2024/07/22 09:07:11 pm..
blemil plus 3 milk 400 gm260 L.E.2024/07/22 09:03:44 pm..
bio legam 4 f.c. tabs96 L.E.2024/07/22 08:49:40 pm011276027..
gonapure 150 i.u./ml i.m./s.c. vial395 L.E.2024/07/22 08:40:42 pm011429490..
saizen liquid 20mg/2.5ml cartridge s.c. inj.6000 L.E.2024/07/22 08:33:15 pm011229989..
demafight 5 mg 30 scored tabs55.5 L.E.2024/07/22 08:26:51 pm010236886..
betacor 80mg 30 tab.57 L.E.2024/07/22 07:59:28 pm011118082..
pentasa xtend 2 gm 60 sachets1230 L.E.2024/07/22 07:51:07 pm010288838..
pentasa xtend 2 gm 60 sachets1230 L.E.2024/07/22 07:43:12 pm010288838..
rimactane 300mg 8 capsules10.1 L.E.2024/07/22 07:38:25 pm010091262..
vasorin 60mg/2ml 6 amps.5.3 L.E.2024/07/22 07:33:55 pm..
bio legam 4 f.c. tabs96 L.E.2024/07/22 07:23:41 pm011276027..
بإجمالي بقيمة 64953.15 جنيه

ساعد الناس لتعرف صفحتك من خلال مشاركتها من هنا
👇 👇 👇


VIEWS: 5761
ORDERS RECIEVED : 16130 orders

PHARMACY ID: 408



آخر منتجات تم اضافتها من هذه الصيدلية


تقييمات العملاء للصيدلية:


العنوان
القاهرة
التجمع الخامس


الاتجاهات وكيف تصل اليها على خرائط جوجل مابس
👇 👇 👇

تاريخ تسجيل الصيدلية على الموقع
👇 👇 👇
2023-09-24 10:52:12


تبليغ عن مشكلة 🚩



جميع الحقوق محفوظة دليل دواء مصر © 2024